Regional Weather Roundup
Issued by NWS

Home | Current Version | Previous Version | Text Only | Print | Product List | Glossary Off
Versions: 1 2 3 4 5 6 7 8 9 10 11 12 13 14 15 16 17 18 19 20 21 22 23 24 25 26 27 28 29 30 31 32 33 34 35 36 37 38 39 40 41 42 43 44 45 46 47 48 49 50

000
ASUS43 KLOT 020306
RWRIL

ILLINOIS REGIONAL WEATHER ROUNDUP
NATIONAL WEATHER SERVICE CHICAGO/ROMEOVILLE IL
1000 PM CDT MON SEP 01 2014

NOTE: "FAIR" INDICATES FEW OR NO CLOUDS BELOW 12,000 FEET WITH NO
SIGNIFICANT WEATHER AND/OR OBSTRUCTIONS TO VISIBILITY.

* THESE STATIONS ARE NOT UNDER NWS QUALITY CONTROL. THEY ALSO MAY NOT
  REPORT WEATHER SUCH AS PRECIPITATION OR FOG.

ILZ001-002-007-009-015-016-024-020400-
NORTHWEST ILLINOIS

CITY           SKY/WX    TMP DP  RH WIND       PRES   REMARKS
MOLINE         MOCLDY    71  66  84 SW5       29.86R
STERLING*      MOCLDY    72  66  83 W3        29.85R
SAVANNA*       MOCLDY    72  66  81 CALM      29.85R
$$

ILZ003-004-008-010-011-017-018-020400-
NORTH CENTRAL ILLINOIS

CITY           SKY/WX    TMP DP  RH WIND       PRES   REMARKS
ROCKFORD       MOCLDY    68  65  90 CALM      29.84S
FREEPORT*      PTCLDY    66  64  96 SW3       29.87R
ROCHELLE*      PTCLDY    69  66  89 SW5       29.86R
DE KALB*       MOCLDY    69  65  87 W8        29.85S
PERU*          MOCLDY    73  67  82 SW7       29.85S
$$

ILZ005-006-012>014-019>023-020400-
NORTHEAST ILLINOIS

CITY           SKY/WX    TMP DP  RH WIND       PRES   REMARKS
CHICAGO-OHARE  CLOUDY    71  65  81 W7        29.83R
CHICAGO-MIDWAY PTCLDY    77  67  71 SW10      29.83S
AURORA         PTCLDY    71  66  84 W6        29.85R
LANSING*         N/A    N/A N/A N/A MISG        N/A
JOLIET*        CLEAR     71  65  79 S5        29.85S
WAUKEGAN       PTCLDY    68  65  90 SW3       29.81R
DUPAGE AIRPORT CLOUDY    72  68  87 SW3       29.83S
KANKAKEE*      PTCLDY    69  66  92 SW6       29.88R
WHEELING       CLOUDY    72  68  87 VRB5      29.84S
MORRIS*        PTCLDY    71  68  90 SW5       29.84S
ROMEOVILLE*    CLEAR     73  65  76 SW8       29.84S
NORTHERLY ISL    N/A     76  64  66 SW6         N/A
$$

LMZ740>746-020400-
SOUTHERN LAKE MICHIGAN

STATION/POSITION SKY/WX   TEMP    WIND        PRES    VSBY  WAVE
                          AIR SEA DIR/SP/G                  HT/PER
                          (F)     (DEG/KT/KT) (MB)    (MI)  (FT/S)
SOUTHERN BUOY              71 70  250/  8/ 10 1009.3R         2/ 3
WAUKEGAN HARBOR            70     250/  6/  8   N/A
HARRISON CRIB              76     220/ 17/ 25   N/A
BURNHAM HARBOR             76     160/  3/ 12   N/A
CALUMET HARBOR             75     210/  6/  9 1009.2R
MICHIGAN CITY              74     190/ 13/ 16   N/A
MICHIGAN CITY 6N           75 72  230/ 14/ 17   N/A           2/ 3
ST. JOSEPH                 74 72  200/ 12/ 17   N/A           3/ 4
$$

ILZ025>027-034>036-040-047-049-050-058-095>099-020400-
WEST-CENTRAL ILLINOIS

CITY           SKY/WX    TMP DP  RH WIND       PRES   REMARKS
QUINCY         CLOUDY    74  69  85 S7        29.90R
GALESBURG*     MOCLDY    70  67  92 S3        29.88R
MACOMB*        CLOUDY    71  68  89 SW6       29.90R
JACKSONVILLE*  TSTM      73  71  92 S8        29.92S
PITTSFIELD*    LGT RAIN  72  69  91 S6        29.92R
$$

ILZ028>032-037-038-041>044-048-051>054-059>061-020400-
CENTRAL ILLINOIS

CITY           SKY/WX    TMP DP  RH WIND       PRES   REMARKS
PONTIAC        CLOUDY    73  70  88 SW3       29.87R
DECATUR        LGT RAIN  74  69  85 SW8       29.90R
PEORIA         MOCLDY    75  66  73 SW6       29.88R
LACON*         PTCLDY    71  66  83 SW3       29.86R
LINCOLN*       CLOUDY    74  68  80 CALM      29.88R
SPRINGFIELD    RAIN      73  69  87 SW9       29.92R
TAYLORVILLE    RAIN      72  68  88 SW13      29.93R
$$

ILZ033-039-045-046-055>057-062-063-020400-
EAST-CENTRAL ILLINOIS

CITY           SKY/WX    TMP DP  RH WIND       PRES   REMARKS
CHAMPAIGN      CLOUDY    71  67  87 S6        29.90S
DANVILLE*      PTCLDY    70  67  90 SW8       29.87F
RANTOUL*       MOCLDY    72  65  80 S5        29.90R
MATTOON        LGT RAIN  74  67  78 S8        29.90S
PARIS*         PTCLDY    69  67  92 S3        29.91S
$$

ILZ079-100>102-020400-
SOUTHWEST ILLINOIS

CITY           SKY/WX    TMP DP  RH WIND       PRES   REMARKS
ALTON          TSTM      72  70  94 SW6       29.92R
BELLEVILLE     MOCLDY    77  71  83 E9        29.87F
CAHOKIA*       CLOUDY    79  69  71 SE7       29.87R HX  81
SPARTA*        CLOUDY    77  70  80 SE7       29.91S
$$

ILZ064>066-069>071-074>076-080>082-084>086-088>090-092>094-020400-
SOUTH-CENTRAL ILLINOIS

CITY           SKY/WX    TMP DP  RH WIND       PRES   REMARKS
CARBONDALE     MOCLDY    76  72  87 S7        29.92S
CAIRO*         MOCLDY    81  73  76 S6        29.95R HX  86
EFFINGHAM*     TSTM      75  66  74 CALM      29.92S
MARION         MOCLDY    79  73  83 S8        29.93F HX  82
MT. VERNON     MOCLDY    77  68  73 SE5       29.93F
CENTRALIA*     MOCLDY    75  68  78 SE5       29.91F
SALEM*         CLOUDY    78  71  80 S3        29.92F HX  80
METROPOLIS*    CLEAR     79  73  82 SE3       29.95S HX  82
$$

ILZ067-068-072-073-078-083-087-091-020400-
SOUTHEAST ILLINOIS

CITY           SKY/WX    TMP DP  RH WIND       PRES   REMARKS
LAWRENCEVILLE  CLOUDY    74  71  91 SW3       29.93S
FLORA*         CLEAR     74  67  78 S5        29.94R
FAIRFIELD*     MOCLDY    77  73  88 CALM      29.93F
HARRISBURG*    CLEAR     75  74  95 SE3       29.95S
ROBINSON*      MOCLDY    75  72  90 S5        29.93S
CARMI*         CLOUDY    75  74  96 CALM      29.94S
$$

ABBREVIATIONS USED IN REMARKS
   TC - TEMPERATURE IN CELSIUS
  WCI - WIND CHILL INDEX
   HX - HEAT INDEX
  VSB - VISIBILITY
$$



USA.gov is the U.S. government's official web portal to all federal, state and local government web resources and services.